Weather History for VIDP - May, 2013

Change the Weather History Date:

Monday, May 20, 2013

  Actual Average Record
Temperature  
Mean Temperature 99 °F -  
Max Temperature 111 °F 100 °F - ()
Min Temperature 87 °F 80 °F - ()
Cooling Degree Days 34    
Growing Degree Days 49 (Base 50)    
Moisture  
Dew Point 40 °F    
Average Humidity 13    
Maximum Humidity 17    
Minimum Humidity 8    
Precipitation  
Precipitation 0.00 in - - ()
Sea Level Pressure  
Sea Level Pressure 29.57 in    
Wind  
Wind Speed 4 mph ()    
Max Wind Speed 14 mph    
Max Gust Speed -    
Visibility 2.2 miles    
Events      
T = Trace of Precipitation, MM = Missing Value Source: Averaged Metar Reports

Daily Weather History Graph

Daily Weather History Graph

Search for Another Location

Airport or City:

Trip Planner

Search our weather history database for the weather conditions in past years. The results will help you decide how hot, cold, wet, or windy it might be!

Date:

Astronomy

May. 20, 2013 Rise Set
Actual Time 5:28 AM IST 7:08 PM IST
Civil Twilight 5:02 AM IST 7:34 PM IST
Nautical Twilight 4:31 AM IST 8:05 PM IST
Astronomical Twilight 3:58 AM IST 8:38 PM IST
Moon 2:10 PM IST (5/20) 1:41 AM IST (5/20)
Length of Visible Light 14h 31m
Length of Day
13h 39m
Waxing Gibbous, 71% of the Moon is Illuminated
May 20
Waxing Gibbous
May 25
Full
Jun 1
Last Quarter
Jun 8
New
Jun 16
First Quarter

Hourly Weather History & Observations

Time (IST) Temp. Dew Point Humidity Pressure Visibility Wind Dir Wind Speed Gust Speed Precip Events Conditions
12:00 AM 93.2 °F 39.2 °F 15% 29.59 in 1.3 mi Calm Calm - N/A   Haze
12:30 AM 93.2 °F 39.2 °F 15% 29.56 in 1.3 mi Calm Calm - N/A   Haze
1:00 AM 91.4 °F 41.0 °F 17% 29.56 in 1.6 mi Calm Calm - N/A   Haze
1:30 AM 91.4 °F 37.4 °F 15% 29.56 in 1.7 mi SW 5.8 mph - N/A   Haze
2:00 AM 89.6 °F 35.6 °F 15% 29.56 in 1.7 mi SW 6.9 mph - N/A   Haze
2:30 AM 89.6 °F 35.6 °F 15% 29.56 in 1.7 mi SW 5.8 mph - N/A   Haze
3:30 AM 89.6 °F 35.6 °F 15% 29.56 in 1.9 mi WSW 3.5 mph - N/A   Haze
4:00 AM 89.6 °F 35.6 °F 15% 29.56 in 1.9 mi SW 3.5 mph - N/A   Haze
4:30 AM 87.8 °F 37.4 °F 17% 29.56 in 1.9 mi WSW 2.3 mph - N/A   Haze
5:00 AM 89.6 °F 35.6 °F 15% 29.56 in 1.9 mi Calm Calm - N/A   Haze
5:30 AM 89.6 °F 35.6 °F 15% 29.59 in 2.2 mi Calm Calm - N/A   Haze
6:00 AM 89.6 °F 37.4 °F 16% 29.59 in 2.2 mi Calm Calm - N/A   Haze
6:30 AM 89.6 °F 37.4 °F 16% 29.62 in 2.2 mi West 4.6 mph - N/A   Haze
7:00 AM 89.6 °F 37.4 °F 16% 29.62 in 2.2 mi WSW 5.8 mph - N/A   Haze
8:30 AM 96.8 °F 41.0 °F 15% 29.65 in - WNW 9.2 mph - N/A   Haze
9:30 AM 100.4 °F 42.8 °F 14% 29.65 in 1.9 mi West 12.7 mph - N/A   Haze
10:00 AM 102.2 °F 44.6 °F 14% 29.65 in 1.9 mi WNW 11.5 mph - N/A   Unknown
10:30 AM 104.0 °F 44.6 °F 13% 29.65 in 2.2 mi WNW 11.5 mph - N/A   Unknown
11:00 AM 105.8 °F 44.6 °F 13% 29.65 in 2.2 mi West 13.8 mph - N/A   Unknown
11:30 AM 107.6 °F 44.6 °F 12% 29.62 in 2.2 mi WNW 13.8 mph - N/A   Unknown
12:00 PM 107.6 °F 44.6 °F 12% 29.62 in 2.2 mi WNW 11.5 mph - N/A   Unknown
12:30 PM 109.4 °F 41.0 °F 10% 29.62 in 2.5 mi NW 9.2 mph - N/A   Unknown
1:00 PM 109.4 °F 41.0 °F 10% 29.62 in 2.5 mi WNW 11.5 mph - N/A   Unknown
1:30 PM 109.4 °F 39.2 °F 9% 29.59 in 2.5 mi NW 10.4 mph - N/A   Unknown
2:00 PM 109.4 °F 35.6 °F 8% 29.59 in 2.8 mi WNW 11.5 mph - N/A   Haze
3:00 PM 111.2 °F 39.2 °F 9% 29.56 in 3.1 mi WNW 8.1 mph - N/A   Haze
3:30 PM 111.2 °F 35.6 °F 8% 29.56 in 3.1 mi West 8.1 mph - N/A   Haze
4:00 PM 111.2 °F 35.6 °F 8% 29.56 in 3.1 mi WNW 9.2 mph - N/A   Haze
4:30 PM 111.2 °F 35.6 °F 8% 29.56 in 3.1 mi WNW 6.9 mph - N/A   Haze
5:00 PM 111.2 °F 35.6 °F 8% 29.53 in 3.1 mi West 6.9 mph - N/A   Haze
5:30 PM 111.2 °F 35.6 °F 8% 29.53 in 3.1 mi NW 9.2 mph - N/A   Haze
6:00 PM 109.4 °F 37.4 °F 9% 29.53 in 3.1 mi NW 6.9 mph - N/A   Haze
6:30 PM 109.4 °F 37.4 °F 9% 29.53 in 3.1 mi WSW 3.5 mph - N/A   Haze
7:00 PM 107.6 °F 39.2 °F 10% 29.53 in 3.1 mi WSW 4.6 mph - N/A   Haze
7:30 PM 104.0 °F 41.0 °F 12% 29.53 in 2.8 mi West 3.5 mph - N/A   Haze
8:00 PM 104.0 °F 41.0 °F 12% 29.53 in - Calm Calm - N/A   Smoke
8:30 PM 102.2 °F 42.8 °F 13% 29.53 in - Calm Calm - N/A   Smoke
9:30 PM 98.6 °F 44.6 °F 16% 29.53 in 1.3 mi Calm Calm - N/A   Smoke
10:00 PM 98.6 °F 44.6 °F 16% 29.53 in 1.3 mi Calm Calm - N/A   Smoke
10:30 PM 98.6 °F 44.6 °F 16% 29.53 in 1.3 mi SSW 4.6 mph - N/A   Smoke
11:00 PM 98.6 °F 44.6 °F 16% 29.53 in 1.3 mi South 4.6 mph - N/A   Haze
11:30 PM 98.6 °F 44.6 °F 16% 29.53 in 1.6 mi SSW 4.6 mph - N/A   Haze